User: anonymous   Login
Location: Black Rock Desert
(40.7548°N, 119.2364°W)
Time: 01:00:04
(UTC-07:00)
Language:

Cosmos 1340 Rocket - Orbit

View from above orbital plane
View from above orbital plane
View from above satellite
View from above satellite

Ground track
Ground track

The orbit data is extracted from the following two-line orbital elements,

1 13068U 82013B   16182.53953064 -.00000250  00000-0 -18376-4 0  9993
2 13068  81.2042 263.8110 0022678  41.2106 319.0825 15.06623313870549
Epoch (UTC): 30 June 2016 12:56:55
Eccentricity: 0.0022678
inclination: 81.2042°
perigee height: 531 km
apogee height: 562 km
right ascension of ascending node: 263.8110°
argument of perigee: 41.2106°
revolutions per day: 15.06623313
mean anomaly at epoch: 319.0825°
orbit number at epoch: 87054

The dashed part of the orbit path shows where the satellite is in the earth's shadow,  

DLR